User: anonymous   Login
Location: Bakhuizen
(52.8696°N, 5.4575°E)
Time: 02:27:42
(UTC+00:00)
Language:

Cosmos 773 Rocket - Orbit

View from above orbital plane
View from above orbital plane
View from above satellite
View from above satellite

Ground track
Ground track

The orbit data is extracted from the following two-line orbital elements,

1 08344U 75094B   21337.50592132  .00000113  00000-0  44942-4 0  9999
2 08344  74.0573   1.2291 0022629 217.0488 142.9106 14.39203027419922
Epoch (UTC): 03 December 2021 12:08:31
Eccentricity: 0.0022629
inclination: 74.0573°
perigee height: 745 km
apogee height: 777 km
right ascension of ascending node: 1.2291°
argument of perigee: 217.0488°
revolutions per day: 14.39203027
mean anomaly at epoch: 142.9106°
orbit number at epoch: 41992

The dashed part of the orbit path shows where the satellite is in the earth's shadow,  

DLR